sat.trackr.live / text

‹ back to catalog

CHECKMATE 8

NORAD 56162 · 2023-050A

PAYLOAD ACTIVE UNKNOWN

§ Identity

Operator
Country
US
Launch date
2023-04-02
Launch site
AFWTR
Launch vehicle
Mass (kg)
RCS (m²)

External: N2YO · Heavens-Above · Gunter

§ Orbital elements

Epoch: 2026-09-21T16:09:12.603456Z

Period
103.97 min
Inclination
81.0052°
Eccentricity
0.0007340
Mean motion
13.84971528 rev/d
Perigee alt
940.9 km
Apogee alt
951.7 km
Semi-major
7,324.4 km
B*
4.7763e-5
RAAN
339.2300°
Arg perigee
67.9037°
Mean anomaly
292.2898°
Rev number
17,550

§ Raw data

CHECKMATE 81 56162U 23050A   26264.67306254  .00000065  00000+0  47763-4 0  99942 56162  81.0052 339.2300 0007340  67.9037 292.2898 13.84971528175500

JSON: /api/v1/satellites/56162 · /tle

For live sub-satellite position, see the globe view (requires WebGL).

§ Visibility from observer

Set your observer location to see the next 7 days of passes ≥ 10°. The values pass through the URL so the page stays shareable.

No JS? Fill the form by hand. The geolocation button needs JavaScript.